Spokane Fairchild, WA
on Saturday, February 9, 2013

Saturday
Previous Day Next Day
Daily Summary
 ActualAverage (KGEG)Record (KGEG)
Temperature
Mean Temperature °F 32°F  
Max Temperature 32°F 38°F 53°F (1918)
Min Temperature 19°F 26°F -17°F (1933)
Degree Days
Heating Degree Days 40 33  
Month to date heating degree days 299  
Since 1 July heating degree days 4232  
Cooling Degree Days 0 0  
Month to date cooling degree days 0  
Year to date cooling degree days 0  
Moisture
Dew Point 26°F   
Average Humidity 98    
Maximum Humidity 100    
Minimum Humidity 85    
Precipitation
Precipitation 0.00 in 0.05 in 0.52 in (1902)
Month to date precipitation 0.42  
Year to date precipitation 2.21  
Snow
Snow 0.00 in 0.30 in 4.80 in (1994)
Month to date snowfall 2.5  
Since 1 July snowfall 36.0  
Snow Depth in   
Wind
Wind Speed 4 mph   
Max Wind Speed 8 mph   
Max Gust Speed mph   
Visibility 4 miles   
Events Fog , Rain   

Key: T is trace of precipitation, MM is missing value
Source: NWS Daily Summary
Time(PST)TemperatureDew PointHumidity Pressure Visibility Wind DirectionWind SpeedGust SpeedPrecipitationEvents Conditions
12:03 AM 26.6°F 26.6°F 100% 30.06 in 2.5 miles South 5.8 mph - N/A   Clear
12:08 AM 26.6°F 26.6°F 100% 30.06 in 1.8 miles SSW 4.6 mph - N/A   Clear
12:13 AM 26.6°F 24.8°F 93% 30.06 in 1.2 miles South 4.6 mph - N/A   Clear
12:28 AM 24.8°F 24.8°F 100% 30.05 in 1.8 miles South 4.6 mph - N/A   Clear
12:33 AM 24.8°F 24.8°F 100% 30.05 in 4.0 miles South 4.6 mph - N/A   Clear
12:38 AM 24.8°F 24.8°F 100% 30.05 in 8.0 miles South 3.5 mph - N/A   Clear
12:58 AM 25.5°F 25.0°F 98% 30.13 in 8.0 miles SSW 5.8 mph - N/A   Clear
1:00 AM 24.8°F 24.8°F 100% 30.05 in 5.0 miles SSW 5.8 mph - N/A   Clear
1:05 AM 24.8°F 24.8°F 100% 30.04 in 1.5 miles SSW 5.8 mph - N/A   Clear
1:09 AM 24.8°F 24.8°F 100% 30.04 in 0.8 miles SSW 5.8 mph - N/A   Clear
1:14 AM 24.8°F 24.8°F 100% 30.04 in 0.5 miles South 5.8 mph - N/A Fog Light Freezing Fog
1:19 AM 24.8°F 24.8°F 100% 30.04 in 0.5 miles South 4.6 mph - N/A Fog Light Freezing Fog
1:24 AM 24.8°F 24.8°F 100% 30.04 in 0.8 miles South 4.6 mph - N/A   Mist
1:29 AM 24.8°F 24.8°F 100% 30.04 in 0.8 miles South 4.6 mph - N/A   Mist
1:39 AM 24.8°F 24.8°F 100% 30.05 in 0.5 miles SSW 4.6 mph - N/A Fog Light Freezing Fog
1:58 AM 24.8°F 24.6°F 99% 30.13 in 0.8 miles SW 2.3 mph - N/A   Mist
2:08 AM 24.8°F 23.0°F 93% 30.05 in 0.8 miles Calm Calm - N/A   Mist
2:13 AM 23.0°F 23.0°F 100% 30.05 in 0.5 miles SSW 1.2 mph - N/A Fog Light Freezing Fog
2:33 AM 24.8°F 24.8°F 100% 30.05 in 0.5 miles West 2.3 mph - N/A Fog Light Freezing Fog
2:38 AM 24.8°F 24.8°F 100% 30.05 in 0.2 miles West 2.3 mph - N/A Fog Light Freezing Fog
2:58 AM 22.8°F 22.1°F 97% 30.12 in 0.2 miles South 2.3 mph - N/A Fog Light Freezing Fog
3:12 AM 23.0°F 23.0°F 100% 30.04 in 0.2 miles Calm Calm - N/A Fog Light Freezing Fog
3:58 AM 23.9°F 23.2°F 97% 30.11 in 0.2 miles South 4.6 mph - N/A Fog Light Freezing Fog
4:38 AM 24.8°F 24.8°F 100% 30.04 in 0.2 miles South 4.6 mph - N/A Fog Light Freezing Fog
4:43 AM 24.8°F 24.8°F 100% 30.04 in 0.2 miles South 2.3 mph - N/A Fog Light Freezing Fog
4:48 AM 24.8°F 24.8°F 100% 30.05 in 0.5 miles SSW 2.3 mph - N/A Fog Light Freezing Fog
4:53 AM 24.8°F 24.8°F 100% 30.05 in 0.5 miles SW 3.5 mph - N/A Fog Light Freezing Fog
4:58 AM 25.7°F 25.2°F 98% 30.14 in 0.5 miles South 3.5 mph - N/A Fog Light Freezing Fog
5:03 AM 24.8°F 24.8°F 100% 30.04 in 0.5 miles SSW 4.6 mph - N/A Fog Light Freezing Fog
5:48 AM 24.8°F 24.8°F 100% 30.04 in 0.8 miles WSW 3.5 mph - N/A   Mist
5:53 AM 24.8°F 24.8°F 100% 30.05 in 0.5 miles South 2.3 mph - N/A Fog Light Freezing Fog
5:58 AM 24.8°F 24.8°F 100% 30.13 in 0.5 miles South 2.3 mph - N/A Fog Light Freezing Fog
6:28 AM 26.6°F 26.6°F 100% 30.03 in 0.2 miles SSW 3.5 mph - N/A Fog Light Freezing Fog
6:33 AM 26.6°F 26.6°F 100% 30.03 in 0.2 miles SSW 2.3 mph - N/A Fog Light Freezing Fog
6:43 AM 26.6°F 24.8°F 93% 30.03 in 0.2 miles South 3.5 mph - N/A Fog Light Freezing Fog
6:48 AM 24.8°F 24.8°F 100% 30.03 in 0.5 miles South 4.6 mph - N/A Fog Light Freezing Fog
6:58 AM 24.8°F 24.8°F 100% 30.12 in 0.2 miles South 4.6 mph - N/A Fog Light Freezing Fog
7:55 AM 24.8°F 24.8°F 100% 30.14 in 0.8 miles SSW 1.2 mph - N/A   Mist
8:18 AM 24.8°F 24.8°F 100% 30.05 in 1.2 miles SSW 3.5 mph - N/A   Overcast
8:19 AM 24.8°F 24.8°F 100% 30.05 in 1.0 miles SSW 2.3 mph - N/A   Mist
8:24 AM 24.8°F 24.8°F 100% 30.05 in 0.8 miles SSW 3.5 mph - N/A   Mist
8:29 AM 24.8°F 24.8°F 100% 30.05 in 0.5 miles SSW 2.3 mph - N/A Fog Light Freezing Fog
8:39 AM 26.6°F 26.6°F 100% 30.05 in 0.2 miles South 4.6 mph - N/A Fog Light Freezing Fog
8:44 AM 26.6°F 26.6°F 100% 30.04 in 0.2 miles SSW 3.5 mph - N/A Fog Light Freezing Fog
8:46 AM 26.6°F 26.6°F 100% 30.04 in 0.2 miles South 4.6 mph - N/A Fog Light Freezing Fog
8:51 AM 26.6°F 26.6°F 100% 30.04 in 0.2 miles South 4.6 mph - N/A Fog Light Freezing Fog
8:56 AM 26.6°F 26.6°F 100% 30.04 in 0.5 miles South 3.5 mph - N/A Fog Light Freezing Fog
8:58 AM 27.0°F 26.8°F 99% 30.12 in 0.5 miles South 2.3 mph - 0.00 in Fog Light Freezing Fog
9:08 AM 26.6°F 26.6°F 100% 30.04 in 0.5 miles South 3.5 mph - N/A Fog Light Freezing Fog
9:13 AM 28.4°F 26.6°F 93% 30.04 in 0.8 miles South 3.5 mph - N/A   Mist
9:15 AM 28.4°F 26.6°F 93% 30.04 in 0.8 miles South 3.5 mph - N/A   Mist
9:25 AM 28.4°F 26.6°F 93% 30.04 in 1.2 miles South 4.6 mph - N/A   Overcast
9:30 AM 28.4°F 28.4°F 100% 30.03 in 1.0 miles SSW 4.6 mph - N/A   Mist
9:35 AM 28.4°F 28.4°F 100% 30.04 in 0.8 miles South 4.6 mph - N/A   Mist
9:40 AM 28.4°F 28.4°F 100% 30.04 in 1.0 miles South 3.5 mph - N/A   Mist
9:45 AM 28.4°F 28.4°F 100% 30.04 in 1.2 miles SSW 4.6 mph - N/A   Overcast
9:50 AM 28.4°F 28.4°F 100% 30.04 in 2.0 miles South 5.8 mph - N/A   Overcast
9:55 AM 28.4°F 28.4°F 100% 30.03 in 3.0 miles South 5.8 mph - N/A   Overcast
9:58 AM 28.4°F 28.0°F 99% 30.11 in 3.0 miles South 5.8 mph - 0.00 in   Overcast
10:01 AM 28.4°F 28.4°F 100% 30.03 in 3.0 miles South 5.8 mph - N/A   Overcast
10:35 AM 28.4°F 28.4°F 100% 30.04 in 7.0 miles WSW 6.9 mph - N/A   Overcast
10:48 AM 28.4°F 28.4°F 100% 30.04 in 8.0 miles SW 6.9 mph - N/A   Overcast
10:50 AM 28.4°F 28.4°F 100% 30.04 in 8.0 miles SW 5.8 mph - N/A   Overcast
10:53 AM 28.4°F 28.4°F 100% 30.04 in 8.0 miles SW 4.6 mph - N/A   Overcast
10:58 AM 28.8°F 28.6°F 99% 30.13 in 8.0 miles SW 4.6 mph - 0.00 in   Overcast
11:04 AM 28.4°F 28.4°F 100% 30.03 in 8.0 miles WSW 5.8 mph - N/A   Overcast
11:39 AM 30.2°F 28.4°F 93% 30.02 in 10.0 miles SSW 5.8 mph - N/A   Overcast
11:54 AM 30.2°F 30.2°F 100% 30.02 in 10.0 miles SSW 5.8 mph - N/A   Overcast
11:58 AM 30.0°F 29.7°F 99% 30.11 in 10.0 miles SW 5.8 mph - 0.00 in   Overcast
12:02 PM 30.2°F 30.2°F 100% 30.02 in 10.0 miles WSW 4.6 mph - N/A   Overcast
12:10 PM 30.2°F 30.2°F 100% 30.03 in 10.0 miles WSW 4.6 mph - N/A   Overcast
12:58 PM 30.2°F 30.0°F 99% 30.11 in 10.0 miles SW 6.9 mph - 0.00 in   Overcast
1:04 PM 30.2°F 30.2°F 100% 30.01 in 10.0 miles Variable 6.9 mph - N/A   Overcast
1:09 PM 30.2°F 30.2°F 100% 30.01 in 10.0 miles SW 8.1 mph - N/A   Overcast
1:21 PM 30.2°F 30.2°F 100% 30.01 in 10.0 miles SW 8.1 mph - N/A   Overcast
1:36 PM 30.2°F 30.2°F 100% 30.01 in 10.0 miles SSW 6.9 mph - N/A   Overcast
1:58 PM 30.4°F 30.0°F 99% 30.10 in 10.0 miles SW 4.6 mph - 0.00 in   Overcast
2:53 PM 32.0°F 28.4°F 87% 30.01 in 10.0 miles WSW 5.8 mph - N/A   Scattered Clouds
2:58 PM 31.6°F 28.4°F 88% 30.10 in 10.0 miles West 4.6 mph - N/A   Scattered Clouds
3:58 PM 32.4°F 28.2°F 85% 30.11 in 10.0 miles West 1.2 mph - N/A   Clear
4:58 PM 29.7°F 27.1°F 90% 30.13 in 10.0 miles Calm Calm - N/A   Clear
5:11 PM 30.2°F 26.6°F 86% 30.05 in 10.0 miles Calm Calm - N/A   Clear
5:20 PM 30.2°F 26.6°F 86% 30.05 in 10.0 miles Calm Calm - N/A   Clear
5:58 PM 28.8°F 27.1°F 94% 30.14 in 10.0 miles Calm Calm - 0.00 in   Clear
6:11 PM 26.6°F 26.6°F 100% 30.06 in 10.0 miles North 3.5 mph - N/A   Clear
6:28 PM 26.6°F 24.8°F 93% 30.06 in 10.0 miles NNE 2.3 mph - N/A   Clear
6:58 PM 27.7°F 26.8°F 96% 30.17 in 10.0 miles North 3.5 mph - 0.00 in   Clear
7:51 PM 26.6°F 24.8°F 93% 30.09 in 10.0 miles NE 8.1 mph - N/A   Clear
7:55 PM 26.6°F 26.6°F 100% 30.09 in 10.0 miles NE 6.9 mph - N/A   Clear
7:58 PM 27.0°F 25.9°F 96% 30.19 in 10.0 miles NE 6.9 mph - 0.00 in   Clear
8:58 PM 25.5°F 24.6°F 96% 30.19 in 10.0 miles NE 5.8 mph - N/A   Clear
9:58 PM 26.4°F 25.7°F 97% 30.19 in 10.0 miles NE 3.5 mph - N/A   Clear
10:58 PM 25.9°F 25.5°F 99% 30.23 in 10.0 miles Calm Calm - N/A   Clear
11:03 PM 23.0°F 23.0°F 100% 30.13 in 3.0 miles Calm Calm - N/A   Clear
11:08 PM 21.2°F 21.2°F 100% 30.13 in 1.8 miles Calm Calm - N/A   Clear
11:13 PM 21.2°F 21.2°F 100% 30.13 in 1.8 miles NNW 1.2 mph - N/A   Clear
11:18 PM 23.0°F 21.2°F 93% 30.14 in 1.5 miles NW 1.2 mph - N/A   Clear
11:23 PM 21.2°F 21.2°F 100% 30.14 in 1.2 miles NNW 1.2 mph - N/A   Clear
11:27 PM 21.2°F 21.2°F 100% 30.14 in 1.2 miles NW 2.3 mph - N/A   Clear
11:32 PM 21.2°F 21.2°F 100% 30.15 in 1.2 miles NW 3.5 mph - N/A   Clear
11:36 PM 21.2°F 19.4°F 93% 30.15 in 1.0 miles NW 2.3 mph - N/A Rain Light Freezing Rain
11:50 PM 19.4°F 19.4°F 100% 30.15 in 0.8 miles NNW 3.5 mph - N/A   Clear
11:58 PM 20.7°F 20.1°F 98% 30.25 in 0.8 miles NNW 2.3 mph - N/A   Clear
Moon Phase
Feb. 09 Feb. 10 Feb. 17 Feb. 25 Mar. 04
Sunrise:07:05 AM (PST) Moon Rise:06:19 AM (PST)2/9
Sunset:05:05 PM (PST) Moon Set:04:56 PM (PST)2/9

Copyright © 2014 The Weather Underground, Inc.